McComb, MS (39648)

7:44 PM CDT on September 01, 2015 (GMT -0500)
Pinehurst | | Change Station
CLOSE
Current Station
Personal Weather Station
Location: McComb, MS
Elevation: 442 ft
Nearby Weather Stations

Elev 442 ft 31.21 °N, 90.50 °W | Updated 3 minutes ago

Mostly Cloudy
Mostly Cloudy
84.5 °F
Feels Like 88 °F
N
0.0
Wind Variable Wind from SE
Gusts 11.0 mph

Today
High -- | Low -- °F
--% Chance of Precip.
Yesterday
High -- | Low -- °F
Precip. -- in
6:37 AM 7:25 PM
Waning Gibbous, 85% visible
Pressure 30.01 in
Visibility 10.0 miles
Clouds Clear
Heat Index 88 °F
Dew Point 69 °F
Humidity 60%
Rainfall 0.00 in
Snow Depth Not available.
UV 0.0 out of 12
Pollen 8.10 out of 12
Air Quality Not available.
Flu Activity Not available.
METAR KMCB 012353Z AUTO 21004KT 10SM CLR 31/19 A3002 RMK AO2 SLP161 T03060189 10344 20306 55001
Pressure 30.01 in
Visibility 10.0 miles
Clouds Clear
Heat Index 88 °F
Dew Point 69 °F
Humidity 60%
Rainfall 0.00 in
Snow Depth Not available.
UV 0.0 out of 12
Pollen 8.10 out of 12
Air Quality Not available.
Flu Activity Not available.
METAR KMCB 012353Z AUTO 21004KT 10SM CLR 31/19 A3002 RMK AO2 SLP161 T03060189 10344 20306 55001

10-Day Weather Forecast

×

Almanac

Astronomy

Sep. 01, 2015 Rise Set
Actual Time
Civil Twilight
Nautical Twilight
Astronomical Twilight
Moon
Length of Visible Light
Length of Day
Tomorrow will be .
, % of the Moon is Illuminated

Today's Extremes

State Highs State Lows

Community

WunderPhotos

Upload Photos

1,851,658 photos uploaded!

WunderBlogs® & News

Nearby

Air Quality

  Air Quality AQ Index Pollutant
Not available.

Snow Depth

Station Depth Elevation

Earthquake Activity

City Distance Mag. Time & Date
Minimum magnitude displayed is 2.5.

Coastal Water Temperatures

Place Temperature

Stations

Nearby Weather Stations

Station Location Temp. Windchill Dew Point Humidity Wind Precip. Elev Updated Type